This demonstration page uses our WeatherBlox Daily Observations layout. Learn more.

Left ArrowRight Arrow

40.92945, -100.16068

Hourly Observations for April 15, 2016

Temp ( °F °C ) Dew Point ( °F °C ) Humidity (%) Winds ( mph kmh ) Pressure ( in mb ) Visibility ( mi km ) Precip ( " mm )
12:15 am 00:15 Clear 58 14.6 47 8.4 67 67 SSE 24 39 29.71 1006 10 16 N/A
12:35 am 00:35 Clear 58 14.3 47 8.5 68 68 SSE 24 39 29.68 1005 10 16 N/A
12:55 am 00:55 Clear 57 14.1 47 8.6 70 70 SSE 22 35 29.71 1006 10 16 N/A
1:15 am 01:15 Clear 57 14 47 8.6 70 70 SSE 23 37 29.68 1005 10 16 N/A
1:35 am 01:35 Clear 56 13.5 47 8.6 72 72 SSE 23 37 29.71 1006 10 16 N/A
1:55 am 01:55 Clear 57 13.7 48 8.7 72 72 SSE 22 35 29.71 1006 10 16 N/A
2:15 am 02:15 Clear 57 13.7 48 8.9 73 73 SSE 22 35 29.71 1006 10 16 N/A
2:35 am 02:35 Clear 56 13.5 48 8.7 73 73 SSE 28 44 29.71 1006 10 16 N/A
2:55 am 02:55 Partly Cloudy 56 13.5 48 8.9 74 74 SSE 24 39 29.71 1006 10 16 N/A
3:15 am 03:15 Partly Cloudy 56 13.4 48 8.7 73 73 SSE 28 44 29.68 1005 10 16 N/A
3:35 am 03:35 Partly Cloudy 56 13.1 48 8.7 75 75 SSE 24 39 29.68 1005 10 16 N/A
3:55 am 03:55 Partly Cloudy 55 13 47 8.6 75 75 SSE 21 33 29.68 1005 10 16 N/A
4:15 am 04:15 Partly Cloudy 55 13 47 8.6 75 75 SSE 24 39 29.68 1005 10 16 N/A
4:35 am 04:35 Clear 56 13.1 47 8.5 74 74 SSE 24 39 29.68 1005 10 16 N/A
4:55 am 04:55 Clear 56 13.1 47 8.5 74 74 S 22 35 29.68 1005 10 16 N/A
5:15 am 05:15 Clear 56 13.1 47 8.5 74 74 S 21 33 29.68 1005 10 16 N/A
5:35 am 05:35 Partly Cloudy 56 13.5 47 8.5 72 72 S 26 43 29.65 1004 10 16 N/A
5:55 am 05:55 Partly Cloudy 56 13.3 47 8.6 73 73 S 24 39 29.68 1005 10 16 N/A
6:15 am 06:15 Partly Cloudy 56 13.2 47 8.6 74 74 S 25 41 29.68 1005 10 16 N/A
6:35 am 06:35 Clear 55 13 47 8.5 74 74 S 23 37 29.68 1005 10 16 N/A
6:55 am 06:55 Clear 56 13.1 47 8.5 74 74 S 20 31 29.71 1006 10 16 N/A
7:15 am 07:15 Sunny 56 13.2 47 8.5 73 73 S 13 20 29.71 1006 10 16 N/A
7:35 am 07:35 Sunny 56 13.2 48 8.7 74 74 S 9 15 29.74 1007 10 16 N/A
7:55 am 07:55 Mostly Cloudy 56 13.3 48 8.7 74 74 S 16 26 29.74 1007 10 16 N/A
8:15 am 08:15 Cloudy 56 13.5 48 9 74 74 SSE 15 24 29.74 1007 10 16 N/A
8:35 am 08:35 Cloudy 57 13.7 48 8.9 73 73 S 18 30 29.74 1007 10 16 N/A
8:55 am 08:55 Cloudy 57 13.7 48 8.9 73 73 S 18 30 29.74 1007 10 16 N/A
9:15 am 09:15 Cloudy 57 14 48 9 72 72 SSE 20 31 29.74 1007 10 16 N/A
9:35 am 09:35 Cloudy 57 13.8 48 9 73 73 S 15 24 29.74 1007 10 16 N/A
9:55 am 09:55 Cloudy 57 14 49 9.2 73 73 S 21 33 29.74 1007 10 16 N/A
10:15 am 10:15 Cloudy 57 14.1 49 9.5 74 74 S 16 26 29.71 1006 10 16 N/A
10:35 am 10:35 Cloudy 58 14.2 49 9.5 74 74 S 20 31 29.71 1006 10 16 N/A
10:55 am 10:55 Cloudy 58 14.6 49 9.7 73 73 S 18 30 29.71 1006 10 16 N/A
11:15 am 11:15 Cloudy 59 15 50 10 72 72 S 21 33 29.71 1006 10 16 N/A
11:35 am 11:35 Cloudy 61 16 50 10.1 68 68 S 20 31 29.71 1006 10 16 N/A
11:55 am 11:55 Cloudy 62 16.5 50 10.2 67 67 S 24 39 29.71 1006 10 16 N/A
12:15 pm 12:15 Cloudy 62 16.5 50 10 66 66 S 22 35 29.71 1006 10 16 N/A
12:35 pm 12:35 Cloudy 63 17.2 51 10.3 64 64 S 20 31 29.71 1006 10 16 N/A
12:55 pm 12:55 Cloudy 64 17.7 50 10.1 61 61 SSE 22 35 29.68 1005 10 16 N/A
1:15 pm 13:15 Cloudy 65 18.3 50 10.2 59 59 SSE 21 33 29.68 1005 10 16 N/A
1:35 pm 13:35 Cloudy 65 18.4 50 10.1 59 59 S 17 28 29.68 1005 10 16 N/A
1:55 pm 13:55 Mostly Cloudy 66 18.7 50 9.9 57 57 SSE 24 39 29.68 1005 10 16 N/A
2:15 pm 14:15 Partly Cloudy 67 19.3 49 9.7 54 54 SSE 29 46 29.68 1005 10 16 N/A
2:35 pm 14:35 Mostly Cloudy 69 20.3 50 9.9 51 51 S 31 50 29.65 1004 10 16 N/A
2:55 pm 14:55 Mostly Cloudy 68 20 49 9.7 52 52 SSE 26 43 29.68 1005 10 16 N/A
3:15 pm 15:15 Mostly Cloudy 69 20.5 50 9.9 51 51 SSE 28 44 29.68 1005 10 16 N/A
3:35 pm 15:35 Partly Cloudy 71 21.5 51 10.4 49 49 S 26 43 29.65 1004 10 16 N/A
3:55 pm 15:55 Mostly Cloudy 70 21 49 9.6 48 48 S 24 39 29.65 1004 10 16 N/A
4:15 pm 16:15 Mostly Cloudy 71 21.5 50 9.8 47 47 S 21 33 29.65 1004 10 16 N/A
4:35 pm 16:35 Mostly Cloudy 70 21.1 49 9.7 48 48 S 24 39 29.65 1004 10 16 N/A
4:55 pm 16:55 Mostly Cloudy 70 21 50 10 50 50 S 22 35 29.65 1004 10 16 N/A
5:15 pm 17:15 Mostly Cloudy 69 20.6 50 10 51 51 S 22 35 29.62 1003 10 16 N/A
5:35 pm 17:35 Mostly Cloudy 70 20.9 49 9.6 49 49 SSE 22 35 29.65 1004 10 16 N/A
5:55 pm 17:55 Cloudy 69 20.6 49 9.5 49 49 SSE 22 35 29.68 1005 10 16 N/A
6:15 pm 18:15 Cloudy 69 20.3 49 9.4 50 50 S 17 28 29.68 1005 10 16 N/A
6:35 pm 18:35 Cloudy with Nearby Thunderstorms 69 20.3 49 9.2 49 49 SSE 13 20 29.68 1005 10 16 N/A
6:55 pm 18:55 Cloudy 69 20.7 49 9.3 48 48 SE 16 26 29.68 1005 10 16 N/A
7:15 pm 19:15 Cloudy 69 20.4 49 9.3 49 49 SE 16 26 29.68 1005 10 16 N/A
7:35 pm 19:35 Cloudy 69 20.5 48 9.1 48 48 SE 16 26 29.68 1005 10 16 N/A
7:55 pm 19:55 Mostly Cloudy 68 20.2 48 8.9 48 48 SE 16 26 29.68 1005 10 16 N/A
8:15 pm 20:15 Mostly Cloudy 68 20.2 48 8.7 48 48 SE 17 28 29.68 1005 10 16 N/A
8:35 pm 20:35 Partly Cloudy 68 19.9 47 8.5 48 48 SE 21 33 29.68 1005 10 16 N/A
8:55 pm 20:55 Clear 67 19.3 47 8.3 49 49 SE 20 31 29.68 1005 10 16 N/A
9:15 pm 21:15 Mostly Cloudy 66 19 47 8.3 50 50 SE 15 24 29.71 1006 10 16 N/A
9:35 pm 21:35 Cloudy 66 18.8 46 8 50 50 SSE 16 26 29.71 1006 10 16 N/A
9:55 pm 21:55 Cloudy 66 18.7 46 7.8 49 49 SE 15 24 29.71 1006 10 16 N/A
10:15 pm 22:15 Cloudy 65 18.5 46 8 51 51 SSE 20 31 29.74 1007 10 16 N/A
10:35 pm 22:35 Cloudy 64 18 47 8.1 53 53 SSE 17 28 29.77 1008 10 16 N/A
10:55 pm 22:55 Mostly Cloudy 64 18 46 8 52 52 SSE 18 30 29.77 1008 10 16 N/A
11:15 pm 23:15 Clear 64 17.7 46 8 53 53 SSE 17 28 29.77 1008 10 16 N/A
11:35 pm 23:35 Clear 64 17.5 46 8 54 54 SE 16 26 29.77 1008 10 16 N/A
11:55 pm 23:55 Clear 63 17.3 46 7.9 54 54 SE 17 28 29.77 1008 10 16 N/A

Powered by AerisWeather